CST,Max TemperatureF,Mean TemperatureF,Min TemperatureF,Max Dew PointF,MeanDew PointF,Min DewpointF,Max Humidity, Mean Humidity, Min Humidity, Max Sea Level PressureIn, Mean Sea Level PressureIn, Min Sea Level PressureIn, Max VisibilityMiles, Mean VisibilityMiles, Min VisibilityMiles, Max Wind SpeedMPH, Mean Wind SpeedMPH, Max Gust SpeedMPH,PrecipitationIn, CloudCover, Events, WindDirDegrees
2012-11-1,71,53,35,48,41,36,100,75,33,30.11,30.03,29.95,10,10,8,7,1,,0.00,0,,181
2012-11-2,78,58,39,55,47,37,100,76,41,30.02,29.98,29.93,10,9,6,8,1,,0.00,0,,119
2012-11-3,80,62,44,59,47,39,100,68,33,30.15,30.02,29.97,10,8,4,13,2,17,0.00,0,,308
2012-11-4,64,50,37,45,39,36,100,72,34,30.23,30.18,30.12,10,9,5,7,1,,0.00,0,,99
2012-11-5,59,48,37,52,44,37,100,85,55,30.14,30.05,29.95,10,8,2,5,0,,0.10,5,Rain-Thunderstorm,78
2012-11-6,60,48,37,45,43,36,100,79,52,30.13,30.05,29.97,10,9,5,10,2,,0.00,4,,242
2012-11-7,62,47,32,41,34,32,100,74,32,30.20,30.12,30.06,10,9,5,15,2,23,0.00,0,,319
2012-11-8,62,47,32,43,37,32,100,77,39,30.28,30.19,30.12,10,10,10,10,1,,0.00,0,,165
2012-11-9,69,54,39,55,46,37,100,80,56,30.17,30.10,30.02,10,10,7,14,1,18,0.00,2,,181
2012-11-10,73,60,46,59,53,45,100,74,50,30.14,30.06,30.00,10,10,8,16,3,25,0.00,3,,161
2012-11-11,66,56,44,63,56,41,100,86,68,30.15,29.99,29.88,10,7,1,14,9,26,1.19,8,Rain-Thunderstorm,163
2012-11-12,53,42,32,41,29,21,100,67,28,30.51,30.41,30.17,10,10,8,12,5,22,0.00,1,,317
2012-11-13,55,42,28,32,29,19,100,75,25,30.56,30.48,30.39,10,10,9,7,0,,0.00,0,,107
2012-11-14,55,44,32,34,30,18,100,74,23,30.48,30.41,30.34,10,10,9,8,0,,0.00,0,,64
2012-11-15,60,43,26,36,30,27,100,75,27,30.40,30.36,30.30,10,10,9,0,0,,0.00,0,,-1
2012-11-16,62,46,30,37,32,28,100,71,27,30.46,30.41,30.37,10,10,7,7,0,,0.00,0,,97
2012-11-17,62,46,30,36,31,27,100,77,26,30.49,30.42,30.36,10,9,6,7,0,,0.00,0,,107
2012-11-18,64,46,28,39,34,28,100,77,32,30.42,30.36,30.29,10,9,6,7,0,,0.00,0,,192
2012-11-19,51,45,39,50,44,37,100,90,81,30.32,30.26,30.20,10,7,1,0,0,,0.01,4,Rain,-1
2012-11-20,73,55,37,54,45,37,100,80,40,30.23,30.17,30.09,10,6,0,5,0,,0.00,1,Fog,335
2012-11-21,69,52,35,48,41,34,100,82,33,30.32,30.24,30.19,10,6,1,5,0,,0.00,0,,120
2012-11-22,69,51,33,54,44,34,100,79,43,30.21,30.14,30.06,7,4,2,9,1,,0.05,1,Thunderstorm,171
2012-11-23,59,48,37,54,33,23,100,54,33,30.40,30.31,30.13,10,8,2,16,4,24,0.00,2,,327
2012-11-24,51,40,28,30,23,16,93,58,28,30.41,30.30,30.16,10,10,10,7,1,,0.00,0,,255
2012-11-25,62,44,26,37,32,27,100,73,34,30.14,30.03,29.93,10,10,9,12,1,16,0.00,0,,197
2012-11-26,57,45,33,50,38,32,100,80,61,30.31,30.09,30.01,10,10,5,10,1,21,0.00,6,,356
2012-11-27,51,40,30,32,29,25,93,70,35,30.44,30.37,30.31,10,10,10,9,2,,0.00,1,,346
2012-11-28,55,40,26,37,30,23,100,78,41,30.49,30.41,30.35,10,10,9,6,0,,0.00,0,,190
2012-11-29,62,45,28,37,32,27,100,77,34,30.35,30.27,30.20,10,9,8,10,1,,0.00,0,,176
2012-11-30,60,46,32,50,40,32,100,83,55,30.24,30.19,30.14,10,9,6,7,0,,0.00,5,,137